Millington, TN

12:49 PM CST on January 21, 2017 (GMT -0600)
Millington

Weather History for KNQA - October, 2012

Change the Weather History Date:

Friday, October 26, 2012

  Actual Average Record
Temperature  
Mean Temperature 48 °F -  
Max Temperature 55 °F 70 °F 89 °F (2004)
Min Temperature 42 °F 50 °F 33 °F (2013)
Degree Days  
Heating Degree Days 16    
Moisture  
Dew Point 45 °F    
Average Humidity 89    
Maximum Humidity 100    
Minimum Humidity 71    
Precipitation  
Precipitation 0.00 in - - ()
Sea Level Pressure  
Sea Level Pressure 30.14 in    
Wind  
Wind Speed 13 mph (North)    
Max Wind Speed 16 mph    
Max Gust Speed 25 mph    
Visibility 9 miles    
Events Rain    
Averages and records for this station are not official NWS values.
T = Trace of Precipitation, MM = Missing Value Source: NWS Daily Summary

Daily Weather History Graph

Daily Weather History Graph

Search for Another Location

Airport or City:

Trip Planner

Search our weather history database for the weather conditions in past years. The results will help you decide how hot, cold, wet, or windy it might be!

Date:

Astronomy

Oct. 26, 2012 Rise Set
Actual Time 7:15 AM CDT 6:10 PM CDT
Civil Twilight 6:49 AM CDT 6:36 PM CDT
Nautical Twilight 6:19 AM CDT 7:06 PM CDT
Astronomical Twilight 5:50 AM CDT 7:35 PM CDT
Moon 4:21 PM CDT (10/26) 4:17 AM CDT (10/26)
Length of Visible Light 11h 46m
Length of Day
10h 54m
Waxing Gibbous, 91% of the Moon is Illuminated
Oct 26
Waxing Gibbous
Oct 29
Full
Nov 6
Last Quarter
Nov 13
New
Nov 20
First Quarter

Hourly Weather History & Observations

Time (CDT) Temp. Windchill Dew Point Humidity Pressure Visibility Wind Dir Wind Speed Gust Speed Precip Events Conditions
12:55 AM 55.4 °F - 51.8 °F 88% 30.04 in 10.0 mi NNW 15.0 mph - N/A   Overcast
1:55 AM 53.6 °F - 51.8 °F 94% 30.06 in 10.0 mi NNW 12.7 mph - N/A   Overcast
2:15 AM 53.6 °F - 48.2 °F 82% 30.05 in 10.0 mi North 16.1 mph 25.3 mph N/A   Overcast
2:35 AM 53.6 °F - 48.2 °F 82% 30.07 in 10.0 mi North 12.7 mph - N/A   Overcast
2:55 AM 51.8 °F - 48.2 °F 88% 30.08 in 10.0 mi North 15.0 mph - N/A   Overcast
3:15 AM 51.8 °F - 48.2 °F 88% 30.08 in 10.0 mi North 12.7 mph - N/A   Overcast
3:35 AM 51.8 °F - 46.4 °F 82% 30.09 in 10.0 mi North 11.5 mph - N/A   Overcast
3:55 AM 50.0 °F - 46.4 °F 87% 30.09 in 10.0 mi NNW 10.4 mph - N/A   Overcast
4:55 AM 48.2 °F - 46.4 °F 93% 30.09 in 10.0 mi North 13.8 mph - N/A   Overcast
5:55 AM 48.2 °F - 46.4 °F 93% 30.11 in 10.0 mi North 13.8 mph - N/A   Overcast
6:55 AM 48.2 °F - 46.4 °F 93% 30.12 in 10.0 mi North 8.1 mph - N/A   Overcast
7:55 AM 46.4 °F 40.7 °F 44.6 °F 93% 30.13 in 5.0 mi NNE 12.7 mph - N/A Rain Light Rain
8:55 AM 46.4 °F 41.5 °F 46.4 °F 100% 30.18 in 10.0 mi North 10.4 mph - N/A Rain Light Rain
9:55 AM 46.4 °F 41.1 °F 44.6 °F 93% 30.18 in 6.0 mi North 11.5 mph - N/A Rain Light Rain
10:55 AM 46.4 °F 41.1 °F 42.8 °F 87% 30.18 in 10.0 mi North 11.5 mph - N/A   Overcast
11:55 AM 46.4 °F 41.1 °F 42.8 °F 87% 30.20 in 10.0 mi North 11.5 mph - N/A   Overcast
12:55 PM 46.4 °F 40.4 °F 42.8 °F 87% 30.19 in 10.0 mi North 13.8 mph - N/A   Overcast
1:55 PM 44.6 °F 38.1 °F 42.8 °F 93% 30.18 in 10.0 mi North 13.8 mph - N/A   Overcast
2:55 PM 44.6 °F 38.1 °F 42.8 °F 93% 30.17 in 6.0 mi North 13.8 mph - N/A   Overcast
3:55 PM 44.6 °F 39.7 °F 42.8 °F 93% 30.18 in 5.0 mi North 9.2 mph - N/A   Overcast
4:55 PM 42.8 °F 36.6 °F 42.8 °F 100% 30.18 in 5.0 mi North 11.5 mph - N/A   Overcast
5:55 PM 44.6 °F 39.7 °F 42.8 °F 93% 30.18 in 7.0 mi North 9.2 mph - N/A   Overcast
6:55 PM 44.6 °F 39.7 °F 41.0 °F 87% 30.19 in 10.0 mi North 9.2 mph - N/A   Overcast
7:55 PM 44.6 °F 40.2 °F 42.8 °F 93% 30.20 in 10.0 mi North 8.1 mph - N/A   Overcast
8:55 PM 44.6 °F 40.2 °F 41.0 °F 87% 30.21 in 10.0 mi North 8.1 mph - N/A   Overcast
9:55 PM 46.4 °F 42.9 °F 39.2 °F 76% 30.21 in 10.0 mi North 6.9 mph - N/A   Overcast
10:55 PM 46.4 °F 40.4 °F 39.2 °F 76% 30.21 in 10.0 mi North 13.8 mph - N/A   Overcast
11:55 PM 46.4 °F 41.9 °F 37.4 °F 71% 30.20 in 10.0 mi North 9.2 mph - N/A   Overcast